THORAD AGENA D DEB, 16715

Orbit data source: Space-Track

THORAD AGENA D DEB, 16715 is space debris in SSO originally from a launch on Wed, 08 Apr 1970 UTC launched from the Air Force Western Test Range (AFWTR). Debris objects in space refer to the collection of defunct objects orbiting the Earth. Examples of debris include non-operational satellites, rocket bodies, and fragments generated from explosions, collisions, or faulty payload assembly.

Loading next visibility...
Identifier
16715, 1970-025PA
Orbit
SSO
Country
Flag of USUS
Related business
Manufacturer
Unknown
Mission
Spacecraft
Bus & Motor
Unknown
Mass
Unknown
Launch date (UTC)
1970-04-08 (56 years ago)
Launch vehicle
Unknown
Launch site
Air Force Western Test Range (AFWTR)
Object type
Payload
Rocket body
Debris
Shape & HBR
Unknown shape, 0.1 m
Radar Cross Section
Small (<0.1 m²)

Expand to show TLE details & history
Last TLE update: 1 day ago

TLE from 1 day ago
0 THORAD AGENA D DEB
1 16715U 70025PA  25348.96207575  .00000246  00000-0  38517-3 0  9996
2 16715 100.1157 155.2886 0006527 172.2688 341.1094 13.61417405 20664
Epoch: 2025-12-14T23:05Z
TLE epoch observation values (Epoch: 2025-12-14T23:05:23.344Z)
Latitude
26.23507°
Longitude
-89.90807°
Altitude
1,029.044 km
Speed
7.342 km/s
True Right ascension
22h 41m 13s
True Declination
26° 06' 14"
Sunlit
Object was in daylight at epoch
Visualization orbit readout
Latitude
Unknown
Longitude
Unknown
Altitude
Unknown
Speed
Unknown
Apparent Right ascension
Unknown
Apparent Declination
Unknown
Sunlit
N/A
Visualization observer readout
Local Sidereal Time
00:58:23
Azimuth
Unknown
Elevation
Unknown
Doppler factor
Unknown
Orbital elements
Apogee altitude
1,032.687 km
Perigee altitude
1,023.02 km
Semi-major axis
7,405.99 km
Eccentricity
0.00065
Inclination
100.1157°
RAAN
155.2886°
Arg. of periapsis
172.2688°
True anomaly
341.08517°
Mean anomaly
341.1094°
Eccentric anomaly
341.09728°
Mean motion
3.4054 °/min
Orbital period
105.71 mins
BSTAR
0.00038517
Loading maneuver chart data...
Computing Atmospheric mass density...

Documentation

Showing up to 5 results
|